Location: Vanderbilt Planetarium & Observatory
(40.9052°N, 73.3671°W)
Time: 22:00:54
(UTC-04:00)

Daily predictions for brighter satellites

Satellite Brightness Start Highest point End
(mag) Time Altitude Azimuth Time Altitude Azimuth Time Altitude Azimuth
Lacrosse 5 2.8 20:53:31 10° NNW 20:58:16 38° NE 21:02:59 10° ESE
SL-19 R/B 4.4 20:52:41 10° SSE 20:58:21 86° WSW 21:03:57 10° NNW
Envisat 3.1 20:53:53 10° SSE 20:58:58 83° WSW 21:04:05 10° NNW
SPOT 5 4.5 20:57:28 10° ESE 21:01:10 22° ENE 21:05:00 10° NNE
Cosmos 1140 Rocket 4.2 20:56:42 10° SSW 21:01:47 59° WNW 21:06:53 10° NNE
Resurs 01 Rocket 3.3 20:58:35 10° SSW 21:02:36 34° W 21:06:37 10° NNW
Cosmos 1356 Rocket 3.9 20:59:23 10° SSE 21:03:23 42° E 21:07:27 10° NNE
Cosmos 1459 Rocket 4.4 20:58:13 10° N 21:04:18 48° ENE 21:10:15 10° SSE
BREEZE-M DEB (TANK) 3.4 21:02:40 10° W 21:04:24 27° NNW 21:07:01 10° NE
Meteor 1-29 3.1 21:02:20 10° NNE 21:05:43 55° E 21:09:06 10° S
USA 186 3.7 21:09:06 10° SW 21:10:44 17° W 21:12:21 10° NW
Cosmos 2208 Rocket 4.1 21:05:46 10° NNW 21:11:06 74° ENE 21:16:30 10° SSE
Abrixas rocket 3.8 21:08:21 10° NW 21:11:17 30° NNE 21:14:12 10° E
Cosmos 2237 Rocket 3.9 21:07:52 10° NW 21:12:41 30° WSW 21:17:30 10° SSW
Cosmos 2100 Rocket 4.2 21:06:43 10° N 21:12:59 62° E 21:19:16 10° SSE
RESURS DK-1 3.4 21:12:22 10° N 21:16:10 33° ENE 21:19:49 11° ESE
Cosmos 2173 Rocket 4.1 21:15:06 10° N 21:21:14 65° E 21:27:25 10° SSE
Cosmos 1570 Rocket 4.1 21:16:21 10° NNW 21:21:41 82° WSW 21:26:55 10° SSE
Cosmos 1603 4.2 21:16:38 10° NNW 21:22:06 47° ENE 21:27:06 12° SE
Cosmos 2061 Rocket 4.2 21:16:47 10° N 21:23:07 62° E 21:29:28 10° SSE
SAR-Lupe-4 3.6 21:19:36 10° S 21:23:11 80° WSW 21:26:47 10° NNW
MetOp-A 4.5 21:19:33 10° SE 21:24:43 52° ENE 21:29:55 10° N
Cosmos 1340 Rocket 4.3 21:23:24 10° SSW 21:27:12 40° WNW 21:31:04 10° N
Cosmos 1674 2.6 21:23:28 10° S 21:27:14 88° E 21:31:00 10° N
Meteor 2-17 Rocket 4.5 21:22:16 10° N 21:28:27 79° E 21:34:35 10° S
ARGOS 3.7 21:23:55 11° SE 21:28:50 44° ENE 21:33:57 10° N
Cosmos 1939 Rocket 3.9 21:25:32 10° S 21:29:22 44° W 21:33:18 10° NNW
Cosmos 1076 Rocket 3.5 21:26:33 10° S 21:30:55 90° SW 21:35:18 10° N
Terra 3.9 21:29:08 10° E 21:31:35 14° ENE 21:34:04 10° NNE
USA 234 3.7 21:27:07 10° ENE 21:33:09 39° SE 21:39:09 10° SSW
Cosmos 332 Rocket 4.3 21:30:25 10° N 21:35:10 47° ENE 21:38:59 15° SE
Cosmos 1242 Rocket 2.7 21:32:10 10° NNW 21:35:53 75° W 21:39:35 10° S
Cosmos 1943 4.3 21:31:01 10° N 21:36:03 32° ENE 21:40:23 13° ESE
SL-16 R/B 3.1 21:33:16 10° NW 21:38:38 45° WSW 21:43:57 10° S
Cosmos 1408 Rocket 3.5 21:34:38 10° S 21:38:54 68° E 21:43:12 10° NNE
Cosmos 1908 3.6 21:36:29 10° NNW 21:40:19 63° W 21:44:07 10° S
Cosmos 468 Rocket 4.0 21:39:05 10° NNW 21:44:13 71° ENE 21:48:17 16° SSE
Cosmos 2151 4.4 21:42:52 16° ESE 21:44:49 22° E 21:48:09 10° NE
Cosmos 1867 4.4 21:39:31 10° SW 21:44:51 55° NW 21:50:14 10° NNE
Cosmos 1725 Rocket 4.3 21:39:29 10° N 21:45:34 50° ENE 21:50:23 16° SSE
Cosmos 2221 3.7 21:42:14 10° NNW 21:46:24 42° W 21:50:32 10° SSW
ERS-1 Rocket 3.1 21:41:50 10° S 21:46:52 80° WSW 21:51:56 10° NNW
KORONAS-FOTON 3.9 21:44:00 10° S 21:47:47 78° W 21:51:36 10° N
Cosmos 1802 Rocket 4.0 21:42:32 10° N 21:48:42 90° W 21:54:52 10° S
Tiangong 1 1.2 21:55:53 10° WNW 21:58:40 60° N 22:00:24 20° E
Cosmos 1500 Rocket 4.2 21:57:18 21° SSE 21:59:50 40° E 22:04:00 10° NNE
Abrixas 2.2 22:06:23 10° SW 22:09:01 51° SE 22:09:36 40° E
H-2A R/B 2.2 22:07:55 22° SSE 22:11:26 69° ENE 22:16:52 10° N
Cosmos 2016 Rocket 4.2 22:06:17 10° NNW 22:12:30 71° W 22:17:59 13° S
Cosmos 1703 4.2 22:13:09 27° ESE 22:14:08 31° E 22:17:40 10° NNE
CZ-4C R/B 3.8 22:14:47 15° E 22:14:47 15° E 22:17:14 10° ENE
Meteor 2-10 4.2 22:11:27 10° N 22:17:07 88° E 22:21:00 22° S
Meteor 1-11 4.3 22:15:16 19° S 22:19:23 62° E 22:25:07 10° NNE
IGS 5A 4.4 22:19:10 26° ESE 22:20:40 35° ENE 22:24:28 10° N
Cosmos 1328 Rocket 3.6 22:17:08 10° N 22:21:28 75° W 22:23:58 24° S
Cosmos 371 Rocket 3.4 22:19:47 10° NNW 22:24:36 72° WSW 22:27:15 27° S
Cosmos 1626 2.6 22:24:02 36° SE 22:24:47 41° E 22:28:19 10° NNE
Cosmos 1151 Rocket 3.1 22:20:27 10° N 22:24:49 64° E 22:26:36 33° SSE
ERBS 2.2 22:21:35 10° NW 22:24:58 75° SW 22:25:48 47° SSE
Cosmos 1515 Rocket 3.5 22:24:18 10° N 22:28:39 88° WSW 22:30:41 31° S
Cosmos 1726 3.3 22:25:49 10° NNW 22:29:13 37° W 22:31:25 19° SSW
USA 245 4.1 22:28:04 23° SSW 22:29:57 44° W 22:34:02 10° NNW
H-2A R/B 2.8 22:30:44 29° ESE 22:32:06 38° ENE 22:36:01 10° N
Cosmos 1743 Rocket 3.9 22:29:55 17° SSW 22:33:12 62° W 22:37:29 10° N
Delta 2 Rocket 4.4 22:28:33 10° WSW 22:34:02 46° S 22:36:56 26° ESE
Cosmos 2263 Rocket 2.1 22:29:13 13° SSW 22:34:12 77° ESE 22:39:48 10° NNE
Meteor 1-27 4.2 22:29:36 10° N 22:35:26 78° E 22:38:24 30° SSE
Cosmos 2233 Rocket 3.9 22:30:08 10° N 22:36:22 78° E 22:39:46 28° SSE
SPOT 5 3.8 22:35:37 19° SSW 22:38:51 45° W 22:43:45 10° NNW
Cosmos 1300 3.8 22:35:24 10° NNW 22:38:59 39° W 22:40:57 22° SSW
Cosmos 1356 3.4 22:38:22 41° SSW 22:39:28 81° W 22:42:58 10° N
Lacrosse 5 2.7 22:36:32 10° WNW 22:41:15 40° SW 22:43:10 28° S
Cosmos 2228 Rocket 3.9 22:37:40 10° NNW 22:42:06 49° W 22:44:39 23° SSW
Cosmos 1354 Rocket 3.9 22:40:44 29° S 22:43:25 67° ESE 22:48:37 10° NNE
Meteor 2-12 Rocket 4.4 22:37:44 10° N 22:43:50 76° E 22:46:48 32° SSE
Abrixas rocket 2.4 22:44:58 10° WNW 22:47:58 55° SW 22:47:58 55° SW
Cosmos 2058 3.0 22:47:51 34° SSW 22:49:36 76° W 22:53:50 10° N
Cosmos 841 Rocket 3.7 22:47:52 10° NNW 22:53:04 65° WSW 22:55:14 34° S
Cosmos 1763 Rocket 4.1 22:48:48 10° NNW 22:53:42 48° WSW 22:55:57 29° SSW
Landsat 7 4.0 22:51:51 34° S 22:53:49 65° WSW 22:58:34 10° NNW
RESURS DK-1 4.4 22:50:54 10° WNW 22:54:00 20° WSW 22:55:44 16° SW
DMSP B5D2-2 4.2 22:50:23 10° N 22:55:37 73° WNW 22:58:55 23° SSW
H-2A ROCKET BODY 3.8 22:57:07 10° SW 23:01:56 35° SSE 23:19:32 10° E
Cosmos 1844 Rocket 3.5 23:07:26 30° ESE 23:07:33 30° ESE 23:12:20 10° NE
Terra 2.0 23:07:16 42° SSW 23:08:45 66° WSW 23:13:31 10° NNW
Cosmos 1455 2.1 23:08:17 10° N 23:12:10 79° W 23:12:26 73° SSW
Sich 1 3.2 23:14:24 50° E 23:14:27 50° E 23:18:36 10° NNE
USA 234 3.7 23:09:53 10° NE 23:16:19 62° NW 23:22:44 10° WSW
CZ-4 R/B 3.7 23:13:42 10° NNE 23:18:34 90° E 23:19:49 50° SSW
Cosmos 1943 4.2 23:14:57 10° NW 23:20:07 37° WSW 23:22:12 28° SSW
Cosmos 304 Rocket 4.0 23:18:44 10° NNW 23:23:27 60° WSW 23:24:23 49° SSW
ARGOS Delta rocket 4.4 23:20:17 10° NNE 23:25:18 45° E 23:25:43 44° ESE
Cosmos 2285 Rocket 4.2 23:21:09 10° NNW 23:27:26 66° WSW 23:29:42 40° S
deb Chang Zheng 4 3.9 23:23:55 10° N 23:28:14 62° WNW 23:29:24 44° SW
Cosmos 1707 Rocket 3.4 23:26:11 10° N 23:30:41 90° WSW 23:31:06 73° S
Cosmos 2034 Rocket 4.0 23:25:03 10° N 23:31:23 69° E 23:33:16 46° SSE
Cosmos 1869 3.2 23:27:55 10° N 23:31:45 82° NNE 23:31:45 82° NNE
ALOS 2 4.1 23:31:46 24° E 23:32:17 24° ENE 23:35:50 10° NNE
SME Rocket 2.8 23:32:06 77° ESE 23:32:19 81° ENE 23:36:57 10° NNW
Cosmos 1891 Rocket 4.3 23:30:20 10° N 23:36:25 85° E 23:38:07 50° SSE
DELTA 2 DEB (DPAF) 4.0 23:37:15 72° SSW 23:37:39 81° WSW 23:42:08 10° NNW
CZ-2C R/B 3.2 23:35:50 10° NNE 23:40:44 38° E 23:40:52 38° E
Spot 4 4.1 23:42:04 52° SW 23:42:51 60° W 23:47:40 10° NNW
Cosmos 1400 Rocket 3.6 23:44:03 44° ENE 23:44:03 44° ENE 23:47:26 10° NNE
CZ-4C R/B 3.5 23:43:30 75° SW 23:43:38 76° WSW 23:48:04 10° NNW
Cosmos 1666 Rocket 3.6 23:45:24 64° WSW 23:45:51 69° W 23:50:18 10° N
CZ-4B R/B 3.9 23:43:39 10° N 23:48:51 60° WNW 23:50:35 39° SW
Meteor 2-10 Rocket 4.0 23:44:27 10° N 23:49:45 51° ENE 23:50:42 46° ESE
Cosmos 540 Rocket 4.2 23:45:18 10° NNW 23:50:06 41° WSW 23:50:56 38° SW
H-2A R/B 4.4 23:48:33 10° WSW 23:51:22 15° W 23:54:22 10° NW
Cosmos 968 Rocket 3.4 23:52:54 61° SSW 23:53:51 86° WNW 23:59:09 10° NNE
Cosmos 1862 Rocket 4.0 23:50:38 10° N 23:54:47 49° ENE 23:54:47 49° ENE
Cosmos 1933 Rocket 4.0 23:55:45 50° ENE 23:55:45 50° ENE 23:59:33 10° NNE
